Regional Weather Roundup
Issued by NWS Bismarck, ND

Home | Current Version | Previous Version | Text Only | Print | Product List | Glossary On
Versions: 1 2 3 4 5 6 7 8 9 10 11 12 13 14 15 16 17 18 19 20 21 22 23 24 25 26 27 28 29 30 31 32 33 34 35 36 37 38 39 40 41 42 43 44 45 46 47 48 49 50
000
ASUS43 KBIS 042102
RWRBIS

NWR BROADCAST TEXT
NATIONAL WEATHER SERVICE BISMARCK ND
300 PM CST SUN DEC 04 2016

NOTE: "FAIR" INDICATES FEW OR NO CLOUDS BELOW 12,000 FEET WITH NO
SIGNIFICANT WEATHER AND/OR OBSTRUCTIONS TO VISIBILITY.


CITY           SKY/WX    TMP DP  RH WIND       PRES   REMARKS
WILLISTON      SUNNY     32  22  66 S6        29.62F
MINOT          SUNNY     29  21  72 W7        29.64F
MINOT AFB      SUNNY     24  19  81 S1        29.63F
BISMARCK       SUNNY     33  22  63 SW7       29.70F
DICKINSON      SUNNY     29  22  75 SW10      29.63F WCI  20
GARRISON         N/A     29  22  75 CALM      29.65F
HETTINGER ARPT SUNNY     36  25  64 SW3       29.68F
JAMESTOWN      CLOUDY    35  29  78 W12       29.66F
CARRINGTON     CLOUDY    32  28  86 NW10      29.67F
HAZEN          FAIR      28  21  74 SW8       29.69F
STANLEY        FAIR      27  25  93 SW6       29.64F WCI  20
TIOGA          FAIR      27  25  93 SW6       29.63F WCI  20
WATFORD CITY   FAIR      32  21  64 SW3       29.64F
$$

CITY           SKY/WX    TMP DP  RH WIND       PRES   REMARKS
GRAND FORKS    LGT SNOW  32  28  85 W12       29.63F FOG
GRAND FORKS AF NOT AVBL
DEVILS LAKE    CLOUDY    28  25  88 W15       29.64S WCI  16
FARGO          CLOUDY    34  29  82 W10       29.68S
GRAFTON        LGT SNOW  32  32 100 W10       29.63F
GWINNER        CLOUDY    37  32  81 W10       29.70S
LANGDON        LGT SNOW  30  28  93 W20G25    29.59S WCI  18
$$

CITY           SKY/WX    TMP DP  RH WIND       PRES   REMARKS
ABERDEEN       SUNNY     40  29  64 W10       29.75S
MOBRIDGE       SUNNY     38  24  57 W6        29.72F
BUFFALO          N/A     41  24  51 W10       29.61F
RAPID CITY     SUNNY     48  11  22 SW3       29.70F
GLASGOW        CLOUDY    41  24  51 SW8       29.55F
SIDNEY         SUNNY     34  24  67 SW10      29.63F
WOLF POINT     MOSUNNY   41  28  60 NE5       29.59F
GLENDIVE       SUNNY     39  25  57 S8        29.63F
MILES CITY     MOSUNNY   43  19  38 S7        29.62F
BAKER          CLOUDY    35  22  58 SW8       29.65F
$$

CITY           SKY/WX    TMP DP  RH WIND       PRES   REMARKS
BILLINGS       CLOUDY    43  16  33 SW16G26   29.57F
GREAT FALLS    SUNNY     41  24  51 SW24G36   29.48F
$$




USA.gov is the U.S. government's official web portal to all federal, state and local government web resources and services.